When you browse on this site, cookies collect data to enhance your experience and personalize the content and advertising you see.
Visit our Privacy Policy to learn more. By continuing to use the site, you agree to this use of cookies and data.
  • Em Portugal
  • Lista de países
  • Para 7 dias
  • Temperatura da água
  • Mapa do tempo
  • Widgets de tempo
  • user-avatar
    Iniciar Sessão

    Previsão horária em Linares

    Hoje, 21 Agosto, Quarta-feira

    Tempo Temperatura Precipitação Vento Pressão Humidade
    00:00 +24°C° 0 mm 2 m/s 728 mmHg 61%
    01:00 +23°C° 0 mm 1 m/s 727 mmHg 60%
    02:00 +23°C° 0 mm 1 m/s 727 mmHg 59%
    03:00 +22°C° 0 mm 1 m/s 727 mmHg 57%
    04:00 +22°C° 0 mm 1 m/s 727 mmHg 58%
    05:00 +22°C° 0 mm 1 m/s 727 mmHg 59%
    06:00 +22°C° 0 mm 1 m/s 728 mmHg 60%
    07:00 +25°C° 0.1 mm 1 m/s 728 mmHg 55%
    08:00 +27°C° 0.1 mm 1 m/s 728 mmHg 50%
    09:00 +30°C° 0.1 mm 1 m/s 728 mmHg 46%
    10:00 +32°C° 0.1 mm 1 m/s 728 mmHg 41%
    11:00 +35°C° 0.1 mm 2 m/s 728 mmHg 35%
    12:00 +36°C° 0.1 mm 2 m/s 728 mmHg 30%
    13:00 +37°C° 0 mm 2 m/s 728 mmHg 29%
    14:00 +37°C° 0 mm 3 m/s 727 mmHg 27%
    15:00 +37°C° 0 mm 3 m/s 727 mmHg 25%
    16:00 +36°C° 0 mm 3 m/s 727 mmHg 27%
    17:00 +35°C° 0 mm 2 m/s 727 mmHg 29%
    18:00 +35°C° 0 mm 2 m/s 727 mmHg 30%
    19:00 +32°C° 0 mm 2 m/s 728 mmHg 37%
    20:00 +30°C° 0 mm 2 m/s 728 mmHg 44%
    21:00 +28°C° 0 mm 2 m/s 728 mmHg 51%
    22:00 +27°C° 0 mm 1 m/s 728 mmHg 56%
    23:00 +26°C° 0 mm 1 m/s 728 mmHg 60%

    Amanhã, 22 Agosto, Quinta-feira

    Tempo Temperatura Precipitação Vento Pressão Humidade
    00:00 +25°C° 0 mm 1 m/s 728 mmHg 65%
    01:00 +24°C° 0 mm 1 m/s 728 mmHg 69%
    02:00 +23°C° 0 mm 1 m/s 728 mmHg 74%
    03:00 +22°C° 0 mm 1 m/s 728 mmHg 78%
    04:00 +22°C° 0 mm 1 m/s 728 mmHg 80%
    05:00 +22°C° 0 mm 1 m/s 728 mmHg 81%
    06:00 +21°C° 0 mm 1 m/s 728 mmHg 82%
    07:00 +24°C° 0 mm 1 m/s 728 mmHg 70%
    08:00 +27°C° 0 mm 1 m/s 729 mmHg 58%
    09:00 +30°C° 0 mm 2 m/s 729 mmHg 47%
    10:00 +32°C° 0 mm 2 m/s 729 mmHg 39%
    11:00 +35°C° 0 mm 2 m/s 729 mmHg 31%
    12:00 +37°C° 0 mm 2 m/s 728 mmHg 23%
    13:00 +38°C° 0 mm 2 m/s 728 mmHg 21%
    14:00 +39°C° 0 mm 3 m/s 728 mmHg 19%
    15:00 +39°C° 0 mm 3 m/s 727 mmHg 17%
    16:00 +39°C° 0 mm 3 m/s 727 mmHg 18%
    17:00 +38°C° 0 mm 4 m/s 727 mmHg 20%
    18:00 +37°C° 0 mm 4 m/s 727 mmHg 22%
    19:00 +34°C° 0 mm 3 m/s 727 mmHg 32%
    20:00 +30°C° 0 mm 2 m/s 728 mmHg 42%
    21:00 +27°C° 0 mm 1 m/s 728 mmHg 52%
    22:00 +26°C° 0 mm 1 m/s 728 mmHg 54%
    23:00 +25°C° 0 mm 1 m/s 728 mmHg 57%

    Depois de amanhã, 23 Agosto, Sexta-feira

    Tempo Temperatura Precipitação Vento Pressão Humidade
    00:00 +24°C° 0 mm 1 m/s 728 mmHg 60%
    01:00 +24°C° 0 mm 1 m/s 728 mmHg 60%
    02:00 +23°C° 0 mm 1 m/s 728 mmHg 61%
    03:00 +23°C° 0 mm 1 m/s 728 mmHg 61%
    04:00 +22°C° 0 mm 1 m/s 728 mmHg 61%
    05:00 +22°C° 0 mm 1 m/s 728 mmHg 61%
    06:00 +22°C° 0 mm 1 m/s 728 mmHg 60%
    07:00 +25°C° 0 mm 1 m/s 728 mmHg 50%
    08:00 +27°C° 0 mm 1 m/s 728 mmHg 40%
    09:00 +30°C° 0 mm 1 m/s 729 mmHg 30%
    10:00 +32°C° 0 mm 1 m/s 729 mmHg 26%
    11:00 +34°C° 0 mm 1 m/s 729 mmHg 22%
    12:00 +37°C° 0 mm 1 m/s 728 mmHg 18%
    13:00 +37°C° 0 mm 1 m/s 728 mmHg 17%
    14:00 +39°C° 0 mm 1 m/s 728 mmHg 16%
    15:00 +40°C° 0 mm 2 m/s 727 mmHg 14%
    16:00 +39°C° 0 mm 2 m/s 727 mmHg 15%
    17:00 +39°C° 0 mm 2 m/s 727 mmHg 15%
    18:00 +38°C° 0 mm 2 m/s 727 mmHg 15%
    19:00 +35°C° 0 mm 2 m/s 727 mmHg 22%
    20:00 +30°C° 0 mm 2 m/s 728 mmHg 29%
    21:00 +27°C° 0 mm 2 m/s 728 mmHg 35%
    22:00 +26°C° 0 mm 1 m/s 728 mmHg 39%
    23:00 +25°C° 0 mm 1 m/s 728 mmHg 43%

    24 Agosto, Sábado

    Tempo Temperatura Precipitação Vento Pressão Humidade
    00:00 +24°C° 0 mm 1 m/s 728 mmHg 46%
    01:00 +24°C° 0 mm 1 m/s 728 mmHg 49%
    02:00 +23°C° 0 mm 1 m/s 727 mmHg 51%
    03:00 +20°C° 0 mm 0 m/s 727 mmHg 53%
    04:00 +22°C° 0 mm 1 m/s 727 mmHg 53%
    05:00 +22°C° 0 mm 1 m/s 727 mmHg 53%
    06:00 +22°C° 0 mm 1 m/s 727 mmHg 53%
    07:00 +26°C° 0 mm 1 m/s 727 mmHg 45%
    08:00 +29°C° 0 mm 1 m/s 728 mmHg 37%
    09:00 +32°C° 0 mm 2 m/s 728 mmHg 28%
    10:00 +34°C° 0 mm 1 m/s 728 mmHg 25%
    11:00 +36°C° 0 mm 1 m/s 728 mmHg 21%
    12:00 +40°C° 0 mm 1 m/s 728 mmHg 17%
    13:00 +40°C° 0 mm 1 m/s 727 mmHg 15%
    14:00 +41°C° 0 mm 2 m/s 727 mmHg 14%
    15:00 +42°C° 0 mm 2 m/s 727 mmHg 13%
    16:00 +42°C° 0 mm 3 m/s 727 mmHg 13%
    17:00 +40°C° 0 mm 3 m/s 726 mmHg 13%
    18:00 +41°C° 0 mm 4 m/s 726 mmHg 13%
    19:00 +36°C° 0 mm 3 m/s 726 mmHg 18%
    20:00 +32°C° 0 mm 2 m/s 727 mmHg 23%
    21:00 +29°C° 0 mm 2 m/s 727 mmHg 27%
    22:00 +27°C° 0 mm 2 m/s 727 mmHg 31%
    23:00 +26°C° 0 mm 1 m/s 727 mmHg 34%

    25 Agosto, Domingo

    Tempo Temperatura Precipitação Vento Pressão Humidade
    00:00 +25°C° 0 mm 1 m/s 727 mmHg 38%
    01:00 +24°C° 0 mm 1 m/s 726 mmHg 39%
    02:00 +24°C° 0 mm 1 m/s 726 mmHg 41%
    03:00 +21°C° 0 mm 0 m/s 725 mmHg 42%
    04:00 +23°C° 0 mm 1 m/s 726 mmHg 42%
    05:00 +23°C° 0 mm 1 m/s 726 mmHg 42%
    06:00 +23°C° 0 mm 1 m/s 726 mmHg 42%
    07:00 +26°C° 0 mm 1 m/s 726 mmHg 36%
    08:00 +29°C° 0 mm 1 m/s 727 mmHg 30%
    09:00 +29°C° 0 mm 0 m/s 727 mmHg 24%
    10:00 +34°C° 0 mm 1 m/s 727 mmHg 20%
    11:00 +37°C° 0 mm 2 m/s 727 mmHg 17%
    12:00 +39°C° 0 mm 3 m/s 726 mmHg 13%
    13:00 +40°C° 0 mm 3 m/s 726 mmHg 13%
    14:00 +42°C° 0 mm 4 m/s 726 mmHg 12%
    15:00 +42°C° 0 mm 5 m/s 725 mmHg 11%
    16:00 +42°C° 0 mm 5 m/s 725 mmHg 13%
    17:00 +41°C° 0 mm 6 m/s 725 mmHg 14%
    18:00 +40°C° 0 mm 6 m/s 725 mmHg 16%
    19:00 +36°C° 0 mm 5 m/s 726 mmHg 19%
    20:00 +33°C° 0 mm 3 m/s 726 mmHg 23%
    21:00 +30°C° 0 mm 1 m/s 726 mmHg 27%
    22:00 +28°C° 0.1 mm 1 m/s 726 mmHg 30%
    23:00 +27°C° 0.1 mm 2 m/s 726 mmHg 34%

    26 Agosto, Segunda-feira

    Tempo Temperatura Precipitação Vento Pressão Humidade
    00:00 +26°C° 0.1 mm 2 m/s 726 mmHg 38%
    01:00 +25°C° 0.2 mm 1 m/s 726 mmHg 43%
    02:00 +24°C° 0.2 mm 1 m/s 725 mmHg 48%
    03:00 +23°C° 0.2 mm 1 m/s 725 mmHg 53%
    04:00 +23°C° 0.3 mm 1 m/s 726 mmHg 54%
    05:00 +23°C° 0.3 mm 1 m/s 726 mmHg 56%
    06:00 +23°C° 0.3 mm 1 m/s 726 mmHg 57%
    07:00 +24°C° 0.7 mm 1 m/s 727 mmHg 53%
    08:00 +26°C° 0.7 mm 1 m/s 727 mmHg 50%
    09:00 +27°C° 0.7 mm 2 m/s 727 mmHg 47%
    10:00 +29°C° 0.3 mm 3 m/s 727 mmHg 40%
    11:00 +33°C° 0.3 mm 4 m/s 728 mmHg 33%
    12:00 +35°C° 0.3 mm 5 m/s 728 mmHg 27%
    13:00 +36°C° 0 mm 5 m/s 728 mmHg 24%
    14:00 +38°C° 0 mm 6 m/s 727 mmHg 21%
    15:00 +39°C° 0 mm 6 m/s 727 mmHg 18%
    16:00 +39°C° 0 mm 5 m/s 727 mmHg 19%
    17:00 +37°C° 0 mm 4 m/s 727 mmHg 20%
    18:00 +37°C° 0 mm 4 m/s 727 mmHg 21%
    19:00 +34°C° 0 mm 3 m/s 727 mmHg 26%
    20:00 +30°C° 0 mm 2 m/s 728 mmHg 32%
    21:00 +28°C° 0 mm 1 m/s 728 mmHg 37%
    22:00 +27°C° 0 mm 1 m/s 728 mmHg 39%
    23:00 +27°C° 0 mm 1 m/s 729 mmHg 40%
    Mostrar mais